This is the latest recevied weather packets stored in our database for station/object IW2NIA-3. If no packets are shown the sender has not sent any weather packets the latest 10 day(s).
| Time | Temp. | Humidity | Pressure | Rain* | Wind** | Luminosity | Snow |
|---|---|---|---|---|---|---|---|
| 1777718924 | 20.56° C | 42% | 1024 hPa | 0 mm | - | - | - |
| 1777718018 | 19.44° C | 44% | 1024.4 hPa | 0 mm | - | - | - |
| 1777717110 | 19.44° C | 44% | 1024.5 hPa | 0 mm | - | - | - |
| 1777716224 | 19.44° C | 48% | 1024.8 hPa | 0 mm | - | - | - |
| 1777715317 | 18.89° C | 50% | 1025 hPa | 0 mm | - | - | - |
| 1777714417 | 18.33° C | 51% | 1025.1 hPa | 0 mm | - | - | - |
| 1777713512 | 17.78° C | 54% | 1025.3 hPa | 0 mm | - | - | - |
| 1777712624 | 17.78° C | 53% | 1025.5 hPa | 0 mm | - | - | - |
| 1777711725 | 17.22° C | 51% | 1025.5 hPa | 0 mm | - | - | - |
| 1777710819 | 17.22° C | 53% | 1025.6 hPa | 0 mm | - | - | - |
| 1777709916 | 16.67° C | 54% | 1025.6 hPa | 0 mm | - | - | - |
| 1777709008 | 16.11° C | 53% | 1025.7 hPa | 0 mm | - | - | - |
| 1777708123 | 16.11° C | 55% | 1025.6 hPa | 0 mm | - | - | - |
| 1777707223 | 16.11° C | 57% | 1025.7 hPa | 0 mm | - | - | - |
| 1777706312 | 15.56° C | 59% | 1025.6 hPa | 0 mm | - | - | - |
| 1777705410 | 15.56° C | 60% | 1025.7 hPa | 0 mm | - | - | - |
| 1777704510 | 15.56° C | 63% | 1025.8 hPa | 0 mm | - | - | - |
| 1777703627 | 15° C | 66% | 1025.7 hPa | 0 mm | - | - | - |
| 1777702720 | 14.44° C | 69% | 1025.8 hPa | 0 mm | - | - | - |
| 1777701815 | 13.89° C | 72% | 1025.6 hPa | 0 mm | - | - | - |
| 1777700911 | 12.78° C | 75% | 1025.7 hPa | 0 mm | - | - | - |
| 1777700005 | 11.67° C | 80% | 1025.7 hPa | 0 mm | - | - | - |
| 1777699121 | 10° C | 82% | 1025.7 hPa | 0 mm | - | - | - |
| 1777698219 | 9.44° C | 83% | 1025.6 hPa | 0 mm | - | - | - |
| 1777697313 | 8.33° C | 83% | 1025.5 hPa | 0 mm | - | - | - |
* Rain latest hour (hover to see other rain measurements)
** Current wind speed in m/s (hover to see current wind gust speed)